Time[GMT],air_temperature[C](-3m),wind_speed[m/s](-4m),wind_gust[m/s](-4m),visibility[m](-3m),barometric_pressure[millibars](-3m),wind_2_direction[degrees_true](-4m),wind_2_gust[m/s](-4m),wind_2_gust_1s[m/s](-4m),wind_2_min[m/s](-4m),wind_2_percent_good[1](-4m),wind_2_speed[m/s](-4m),wind_direction[degrees_true](-4m),wind_gust_1s[m/s](-4m),wind_min[m/s](-4m)
2016-10-09 18:40,11.2,,,2962,1017.37,1.48,9.07,9.96,4.06,1.00,7.45,,,
2016-10-09 18:50,11.2,,,2909,1017.24,5.61,9.23,10.19,5.15,1.00,7.88,,,
2016-10-09 19:00,11.3,,,2962,1017.06,0.40,9.74,10.99,5.30,1.00,8.21,,,
2016-10-09 19:10,11.4,,,2962,1016.88,4.57,10.31,11.25,5.66,1.00,8.64,,,
2016-10-09 19:20,11.5,,,2962,1016.82,357.65,11.42,11.94,5.35,1.00,8.86,,,
2016-10-09 19:30,11.6,,,2962,1016.69,1.04,11.60,12.06,5.76,1.00,9.52,,,
2016-10-09 19:40,11.6,,,2962,1016.69,0.02,12.03,13.55,6.60,1.00,10.05,,,
2016-10-09 19:50,11.5,,,2930,1016.51,358.62,11.85,13.09,7.13,1.00,10.13,,,
2016-10-09 20:00,11.6,,,2962,1016.45,0.85,12.53,13.97,6.62,1.00,9.94,,,
2016-10-09 20:10,11.4,,,2917,1016.33,5.77,11.71,13.10,6.33,1.00,9.30,,,
2016-10-09 20:20,11.2,,,2921,1016.33,356.05,11.46,12.82,6.45,1.00,10.00,,,
2016-10-09 20:30,11.2,,,2962,1016.33,9.92,11.49,12.37,6.56,1.00,9.48,,,
2016-10-09 20:40,11.3,,,2962,1016.33,1.22,12.01,12.91,6.12,1.00,9.84,,,
2016-10-09 20:50,11.2,,,2868,1016.33,3.41,12.75,14.01,6.32,1.00,10.43,,,
2016-10-09 21:00,11.2,,,2947,1016.75,6.71,11.84,12.38,6.08,1.00,9.41,,,
2016-10-09 21:10,11.2,,,2962,1017.24,13.55,10.17,11.23,5.72,1.00,8.33,,,
2016-10-09 21:20,11.1,,,2794,1017.43,11.70,10.07,11.51,5.59,1.00,8.43,,,
2016-10-09 21:30,11.1,,,2757,1017.55,17.10,9.70,10.87,5.88,1.00,8.48,,,
2016-10-09 21:40,11.1,,,2752,1017.49,10.19,11.36,13.03,6.12,1.00,9.42,,,
2016-10-09 21:50,11.1,,,2249,1017.49,11.30,10.83,11.70,5.81,1.00,8.82,,,
2016-10-09 22:00,10.9,,,2305,1017.49,10.85,11.44,13.11,6.86,1.00,9.86,,,
2016-10-09 22:10,10.8,,,2294,1017.43,9.40,11.46,12.45,6.27,1.00,9.86,,,
2016-10-09 22:20,10.7,,,2523,1017.06,17.55,12.44,13.03,7.43,1.00,10.23,,,
2016-10-09 22:30,10.6,,,2464,1017.12,10.90,12.12,13.33,7.00,1.00,10.43,,,
2016-10-09 22:40,10.6,,,2440,1017.00,8.61,11.74,12.90,6.13,1.00,10.35,,,
2016-10-09 22:50,10.6,,,2499,1016.88,0.51,12.20,12.99,6.34,1.00,10.38,,,
2016-10-09 23:00,10.5,,,2357,1016.69,355.48,13.08,14.09,7.13,1.00,10.68,,,
2016-10-09 23:10,10.4,,,2298,1016.57,356.46,12.14,13.33,6.98,1.00,10.55,,,
2016-10-09 23:20,10.5,,,2664,1016.33,357.70,13.46,14.71,6.94,1.00,11.00,,,
2016-10-09 23:30,10.4,,,2692,1016.27,358.61,13.24,14.33,7.56,1.00,10.88,,,
2016-10-09 23:40,10.4,,,2858,1016.27,1.39,14.02,14.88,7.45,1.00,11.43,,,
2016-10-09 23:50,10.4,,,2706,1016.33,1.30,14.55,15.98,7.04,1.00,11.74,,,
2016-10-10 00:00,10.2,,,2536,1016.27,4.89,13.95,15.51,7.90,1.00,12.11,,,
2016-10-10 00:10,10.1,,,1965,1016.20,6.10,14.55,15.92,8.96,1.00,12.61,,,
2016-10-10 00:20,10.0,,,1850,1016.27,5.18,14.57,16.57,8.69,1.00,12.74,,,
2016-10-10 00:30,10.1,,,1967,1016.39,3.96,14.21,16.00,7.82,1.00,11.96,,,
2016-10-10 00:40,10.2,,,2194,1016.20,13.86,13.91,15.54,8.22,1.00,11.73,,,
2016-10-10 00:50,10.2,,,1640,1016.20,7.51,14.54,15.49,7.31,1.00,11.82,,,
2016-10-10 01:00,10.1,,,1627,1016.02,3.77,14.58,15.50,8.88,1.00,12.54,,,
2016-10-10 01:10,10.1,,,1576,1015.72,7.24,15.38,16.23,7.34,1.00,11.96,,,
2016-10-10 01:20,10.1,,,1894,1015.78,4.57,14.59,15.75,8.55,1.00,12.68,,,
2016-10-10 01:30,10.2,,,1525,1015.72,12.41,15.28,15.51,8.35,1.00,12.30,,,
2016-10-10 01:40,10.3,,,2066,1015.47,21.19,15.27,16.18,9.42,1.00,12.74,,,
2016-10-10 01:50,10.3,,,2231,1015.47,11.94,15.76,17.39,7.90,1.00,12.76,,,
2016-10-10 02:00,10.4,,,2068,1015.17,9.40,15.41,16.71,7.80,1.00,12.41,,,
2016-10-10 02:10,10.3,,,1689,1014.80,9.26,15.04,16.10,8.59,1.00,12.46,,,
2016-10-10 02:20,10.4,,,2147,1014.49,10.56,15.65,16.88,7.04,1.00,12.51,,,
2016-10-10 02:30,10.4,,,2285,1014.19,5.34,16.02,18.19,8.93,1.00,12.64,,,
2016-10-10 02:40,10.4,,,2367,1013.88,3.36,16.21,17.41,9.61,1.00,13.37,,,
2016-10-10 02:50,10.3,,,2178,1013.70,4.46,16.89,19.19,8.69,1.00,14.19,,,
2016-10-10 03:00,10.3,,,2139,1013.46,6.85,16.64,18.98,10.51,1.00,14.19,,,
2016-10-10 03:10,10.3,,,2047,1013.15,5.08,17.72,20.00,8.82,1.00,14.17,,,
2016-10-10 03:20,10.4,,,1767,1013.46,12.22,15.65,16.74,7.53,1.00,12.85,,,
2016-10-10 03:30,10.4,,,2808,1014.49,16.89,15.00,16.32,8.24,1.00,12.66,,,
2016-10-10 03:40,10.4,,,2409,1014.56,8.10,15.78,17.36,8.21,1.00,12.39,,,
2016-10-10 03:50,10.3,,,2208,1013.82,10.26,16.99,17.84,9.03,1.00,13.58,,,
2016-10-10 04:00,10.2,,,1859,1013.15,7.22,17.22,18.29,7.66,1.00,13.11,,,
2016-10-10 04:10,10.0,,,1955,1013.58,1.64,16.31,17.63,8.55,1.00,13.25,,,
2016-10-10 04:20,9.9,,,1642,1013.70,359.98,17.42,18.76,9.16,1.00,14.08,,,
2016-10-10 04:30,9.6,,,1322,1013.46,6.22,18.18,19.51,9.63,1.00,14.75,,,
2016-10-10 04:40,9.4,,,1433,1013.15,5.56,17.91,20.39,10.61,1.00,15.58,,,
2016-10-10 04:50,9.3,,,1391,1012.78,4.95,18.30,20.39,9.21,1.00,15.41,,,
2016-10-10 05:00,9.3,,,1815,1012.30,13.53,18.10,19.92,10.45,1.00,14.89,,,
2016-10-10 05:10,9.4,,,2804,1012.60,5.75,17.09,18.59,9.42,1.00,13.61,,,
2016-10-10 05:20,9.4,,,2122,1012.54,2.25,16.14,17.75,8.78,1.00,13.27,,,
2016-10-10 05:30,9.5,,,2344,1012.48,10.39,14.43,16.61,6.49,1.00,11.75,,,
2016-10-10 05:40,9.2,,,1805,1012.66,2.88,16.90,18.50,6.89,1.00,12.53,,,
2016-10-10 05:50,9.1,,,1525,1012.78,359.32,15.46,16.80,7.62,1.00,12.62,,,
2016-10-10 06:00,9.1,,, 943,1012.78,1.27,15.37,16.50,6.95,1.00,11.92,,,
2016-10-10 06:10,8.8,,,1223,1012.42,4.15,15.75,17.17,7.82,1.00,13.00,,,
2016-10-10 06:20,8.9,,, 901,1012.05,2.09,15.22,16.25,7.41,1.00,12.75,,,
2016-10-10 06:30,8.7,,, 964,1011.87,0.98,15.36,16.48,8.41,1.00,12.88,,,
2016-10-10 06:40,8.7,,,1715,1011.81,358.82,14.87,16.44,8.67,1.00,12.68,,,
2016-10-10 06:50,8.8,,,1531,1011.62,358.54,15.46,16.60,8.76,1.00,12.68,,,
2016-10-10 07:00,8.7,,,1788,1011.62,356.97,15.80,16.73,9.07,1.00,13.11,,,
2016-10-10 07:10,8.8,,,2095,1011.32,357.66,15.50,18.00,8.36,1.00,12.83,,,
2016-10-10 07:20,8.8,,,2146,1011.44,354.72,15.73,16.42,8.24,1.00,12.85,,,
2016-10-10 07:30,8.8,,,2059,1011.44,352.01,16.24,17.78,9.31,1.00,13.34,,,
2016-10-10 07:40,8.9,,,2792,1011.32,354.74,14.61,16.64,8.33,1.00,12.05,,,
2016-10-10 07:50,8.8,,,2816,1011.44,344.55,16.18,17.63,7.93,1.00,12.66,,,
2016-10-10 08:00,8.8,,,2353,1011.62,345.16,14.82,16.54,8.51,1.00,12.73,,,
2016-10-10 08:10,8.7,,,2339,1011.20,352.33,16.52,17.90,9.13,1.00,13.90,,,
2016-10-10 08:20,8.9,,,2205,1011.08,348.10,16.37,18.45,9.20,1.00,13.34,,,
2016-10-10 08:30,8.6,,,2337,1011.14,335.50,15.52,17.62,7.93,1.00,13.29,,,
2016-10-10 08:40,8.7,,,1916,1011.08,342.55,16.46,17.70,9.64,1.00,13.73,,,
2016-10-10 08:50,8.7,,,2554,1010.83,341.50,17.56,18.73,8.61,1.00,13.89,,,
2016-10-10 09:00,8.7,,,2948,1010.95,343.43,16.44,17.98,9.07,1.00,14.12,,,
2016-10-10 09:10,8.7,,,2963,1010.95,345.52,16.27,17.94,9.88,1.00,14.06,,,
2016-10-10 09:20,8.8,,,2963,1011.14,346.70,17.52,18.68,10.53,1.00,14.56,,,
2016-10-10 09:30,8.9,,,2963,1011.14,348.50,16.69,18.66,8.99,1.00,14.44,,,
2016-10-10 09:40,8.9,,,2963,1011.14,350.18,15.98,17.77,8.50,1.00,13.59,,,
2016-10-10 09:50,8.9,,,2963,1011.44,349.26,16.42,17.79,9.01,1.00,13.54,,,
2016-10-10 10:00,8.8,,,2963,1011.56,344.97,16.54,18.48,9.31,1.00,13.61,,,
2016-10-10 10:10,8.9,,,2963,1011.44,348.00,16.75,18.20,9.90,1.00,13.61,,,
2016-10-10 10:20,8.8,,,2963,1011.62,350.69,16.47,18.08,8.17,1.00,12.92,,,
2016-10-10 10:30,8.7,,,2963,1011.50,340.90,16.08,16.96,9.02,1.00,13.06,,,
2016-10-10 10:40,8.8,,,2963,1011.44,341.00,15.76,18.04,8.93,1.00,13.08,,,
2016-10-10 10:50,8.7,,,2963,1011.75,344.18,16.12,17.44,8.68,1.00,13.62,,,
2016-10-10 11:00,8.8,,,2963,1012.05,335.60,16.68,18.20,10.27,1.00,14.17,,,
2016-10-10 11:10,8.8,,,2963,1012.17,332.70,18.31,19.22,8.96,1.00,14.09,,,
2016-10-10 11:20,8.8,,,2963,1012.05,343.97,16.63,19.45,8.81,1.00,13.44,,,
2016-10-10 11:30,8.9,,,2963,1012.24,336.80,17.86,20.68,9.17,1.00,14.72,,,
2016-10-10 11:40,8.9,,,2963,1012.42,334.90,17.65,19.73,8.76,1.00,14.44,,,
2016-10-10 11:50,8.9,,,2963,1012.60,335.30,16.52,19.80,8.82,1.00,13.81,,,
2016-10-10 12:00,8.9,,,2896,1012.91,332.70,16.90,17.98,9.07,1.00,14.10,,,
2016-10-10 12:10,8.9,,,2963,1013.03,334.00,17.00,18.54,9.57,1.00,14.44,,,
2016-10-10 12:20,9.1,,,2963,1013.03,339.00,16.04,17.78,9.51,1.00,13.56,,,
2016-10-10 12:30,9.1,,,2963,1013.33,339.20,16.17,18.40,8.62,1.00,13.85,,,
2016-10-10 12:40,9.2,,,2963,1013.33,338.70,16.85,18.83,8.00,1.00,13.55,,,
2016-10-10 12:50,9.3,,,2963,1013.52,342.00,16.58,18.42,9.07,1.00,13.61,,,
2016-10-10 13:00,9.5,,,2963,1013.58,344.26,16.57,18.40,9.27,1.00,13.39,,,
2016-10-10 13:10,9.6,,,2963,1013.70,341.10,16.31,17.43,8.72,1.00,13.05,,,
2016-10-10 13:20,9.5,,,2963,1013.82,336.30,14.82,15.99,7.23,1.00,12.72,,,
2016-10-10 13:30,9.2,,,2963,1013.88,331.10,15.39,16.72,7.89,1.00,13.24,,,
2016-10-10 13:40,9.2,,,2963,1014.07,332.90,14.79,16.30,8.71,1.00,12.36,,,
2016-10-10 13:50,9.0,,,2963,1014.19,333.70,16.40,17.76,8.93,1.00,13.34,,,
2016-10-10 14:00,9.1,,,2963,1014.25,334.10,16.07,18.49,8.06,1.00,13.22,,,
2016-10-10 14:10,9.2,,,2963,1014.25,334.80,17.45,18.53,10.15,1.00,13.92,,,
2016-10-10 14:20,9.6,,,2963,1014.31,336.10,18.82,21.10,9.42,1.00,13.70,,,
2016-10-10 14:30,9.9,,,2963,1014.19,336.90,14.94,16.14,8.30,1.00,12.30,,,
2016-10-10 14:40,10.2,,,2903,1014.31,336.10,15.34,16.79,8.44,1.00,12.27,,,
2016-10-10 14:50,10.3,,,2963,1014.37,337.40,15.42,16.72,7.69,1.00,12.61,,,
2016-10-10 15:00,10.3,,,2682,1014.37,339.00,16.60,18.14,8.68,1.00,13.11,,,
2016-10-10 15:10,10.1,,,2963,1014.49,335.50,15.16,16.71,8.09,1.00,12.86,,,
2016-10-10 15:20,10.3,,,2873,1014.43,337.40,16.05,16.95,8.61,1.00,12.94,,,
2016-10-10 15:30,10.6,,,2962,1014.62,338.50,15.07,16.29,8.61,1.00,12.41,,,
2016-10-10 15:40,10.7,,,2962,1014.56,341.00,15.40,16.51,9.70,1.00,13.30,,,
2016-10-10 15:50,10.8,,,2785,1014.49,343.39,16.65,18.36,8.60,1.00,13.75,,,
2016-10-10 16:00,10.8,,,2962,1014.68,340.50,17.89,18.99,9.48,1.00,13.71,,,
2016-10-10 16:10,10.9,,,2962,1014.74,336.90,16.12,17.62,9.78,1.00,13.74,,,
2016-10-10 16:20,10.9,,,2962,1014.74,333.60,16.36,19.26,8.26,1.00,13.95,,,
2016-10-10 16:30,11.0,,,2959,1014.62,332.60,16.18,18.19,9.70,1.00,13.73,,,
2016-10-10 16:40,11.1,,,2962,1014.62,334.80,15.63,16.69,8.12,1.00,13.31,,,
2016-10-10 16:50,11.2,,,2962,1014.74,332.50,16.25,17.36,7.89,1.00,13.19,,,
2016-10-10 17:00,11.2,,,2962,1014.80,336.40,17.06,18.81,7.68,1.00,13.63,,,
2016-10-10 17:10,11.4,,,2962,1014.92,339.00,16.52,18.48,9.45,1.00,13.76,,,
2016-10-10 17:20,11.6,,,2960,1015.04,339.60,15.52,16.90,8.69,1.00,12.45,,,
2016-10-10 17:30,11.6,,,2900,1015.10,340.70,14.67,16.01,6.74,1.00,12.23,,,
2016-10-10 17:40,11.6,,,2962,1015.23,343.28,14.69,16.15,7.39,1.00,12.10,,,
2016-10-10 17:50,11.6,,,2962,1015.35,337.80,16.90,18.13,8.38,1.00,13.12,,,
2016-10-10 18:00,11.6,,,2867,1015.47,337.20,14.58,15.71,8.60,1.00,12.28,,,
2016-10-10 18:10,11.7,,,2962,1015.59,340.70,14.71,17.47,6.45,1.00,12.45,,,
2016-10-10 18:20,11.7,,,2925,1015.78,341.30,16.87,19.76,8.51,1.00,12.82,,,
2016-10-10 18:30,11.9,,,2829,1015.78,336.80,15.54,17.10,8.75,1.00,12.72,,,
2016-10-10 18:40,12.0,,,2962,1016.02,340.90,14.47,15.31,7.84,1.00,12.04,,,
2016-10-10 18:50,12.1,,,2962,1016.08,338.00,15.04,16.78,9.08,1.00,12.70,,,
2016-10-10 19:00,12.0,,,2962,1016.27,342.20,14.39,15.95,9.08,1.00,12.15,,,
2016-10-10 19:10,12.1,,,2431,1016.45,348.49,13.77,15.95,6.93,1.00,11.12,,,
2016-10-10 19:20,12.2,,,2962,1016.57,344.52,12.66,14.25,7.17,1.00,10.61,,,
2016-10-10 19:30,12.3,,,2962,1016.69,341.60,14.85,16.96,7.02,1.00,11.32,,,
2016-10-10 19:40,12.0,,,2962,1017.00,334.70,15.10,17.04,8.48,1.00,13.19,,,
2016-10-10 19:50,11.9,,,2962,1017.06,345.32,15.44,17.03,8.92,1.00,12.61,,,
2016-10-10 20:00,11.9,,,2962,1017.24,344.76,15.01,16.13,8.80,1.00,12.57,,,
2016-10-10 20:10,12.0,,,2885,1017.37,346.26,13.58,14.87,8.32,1.00,11.55,,,
2016-10-10 20:20,12.0,,,2880,1017.79,347.47,13.56,14.42,6.96,1.00,10.42,,,
2016-10-10 20:30,12.0,,,2962,1018.04,343.06,13.23,14.34,7.85,1.00,11.35,,,
2016-10-10 20:40,12.0,,,2962,1018.16,345.81,13.09,14.44,6.23,1.00,10.99,,,
2016-10-10 20:50,12.0,,,2962,1018.28,338.10,13.84,15.93,6.96,1.00,10.79,,,
2016-10-10 21:00,12.1,,,2962,1018.40,335.30,14.03,15.57,7.23,1.00,11.91,,,
2016-10-10 21:10,12.0,,,2947,1018.59,343.52,15.06,16.42,8.33,1.00,12.28,,,
2016-10-10 21:20,11.9,,,2962,1018.77,348.25,15.02,16.20,8.19,1.00,12.41,,,
2016-10-10 21:30,11.8,,,2962,1019.14,340.90,15.13,16.53,8.77,1.00,12.38,,,
2016-10-10 21:40,11.6,,,2962,1019.32,342.50,14.89,16.69,7.48,1.00,12.21,,,
2016-10-10 21:50,11.6,,,2962,1019.57,339.80,14.38,15.34,8.39,1.00,11.70,,,
2016-10-10 22:00,11.7,,,2962,1019.75,343.99,13.02,14.34,7.32,1.00,10.86,,,
2016-10-10 22:10,11.6,,,2962,1020.06,336.00,12.66,13.42,6.76,1.00,10.27,,,
2016-10-10 22:20,11.6,,,2962,1020.36,332.90,11.30,12.14,5.73,1.00,9.32,,,
2016-10-10 22:30,11.6,,,2962,1020.61,333.80,11.62,12.50,5.40,1.00,9.24,,,
2016-10-10 22:40,11.6,,,2962,1020.85,330.30,10.33,12.07,5.30,1.00,8.22,,,
2016-10-10 22:50,11.5,,,2962,1021.10,334.90,11.37,12.72,6.72,1.00,9.81,,,
2016-10-10 23:00,11.5,,,2962,1021.22,339.40,12.20,13.28,6.95,1.00,10.08,,,
2016-10-10 23:10,11.4,,,2962,1021.46,325.20,10.69,12.29,6.11,1.00,9.14,,,
2016-10-10 23:20,11.3,,,2962,1021.71,326.30,11.21,12.63,6.39,1.00,9.56,,,
2016-10-10 23:30,11.2,,,2962,1021.89,329.20,12.42,13.74,6.31,1.00,9.97,,,
2016-10-10 23:40,11.2,,,2962,1022.20,331.80,11.17,12.79,6.38,1.00,9.37,,,
2016-10-10 23:50,11.0,,,2962,1022.38,329.60,12.29,13.47,6.64,1.00,10.47,,,
2016-10-11 00:00,11.0,,,2962,1022.44,338.80,12.35,13.68,7.45,1.00,10.75,,,
2016-10-11 00:10,11.1,,,2962,1022.63,337.70,11.77,12.99,7.25,1.00,10.15,,,
2016-10-11 00:20,11.0,,,2962,1022.69,339.40,13.38,13.88,7.43,1.00,11.26,,,
2016-10-11 00:30,10.9,,,2963,1022.87,337.00,14.13,15.31,7.49,1.00,11.46,,,
2016-10-11 00:40,10.9,,,2963,1023.12,335.60,13.96,15.53,6.96,1.00,11.24,,,
2016-10-11 00:50,10.9,,,2963,1023.24,338.00,13.24,14.25,7.66,1.00,11.00,,,
2016-10-11 01:00,10.9,,,2963,1023.30,337.80,13.31,15.29,6.50,1.00,10.92,,,
2016-10-11 01:10,10.8,,,2963,1023.48,338.80,12.42,13.57,6.75,1.00,10.68,,,
2016-10-11 01:20,10.8,,,2963,1023.55,348.72,13.42,14.65,7.77,1.00,10.87,,,
2016-10-11 01:30,10.8,,,2963,1023.73,346.17,13.59,14.73,8.25,1.00,11.62,,,
2016-10-11 01:40,10.8,,,2963,1023.97,341.30,14.39,15.05,5.97,1.00,10.71,,,
2016-10-11 01:50,10.7,,,2963,1024.22,339.30,13.33,14.33,7.45,1.00,11.10,,,
2016-10-11 02:00,10.7,,,2963,1024.34,340.70,11.87,13.41,7.30,1.00,10.25,,,
2016-10-11 02:10,10.6,,,2963,1024.34,339.50,14.72,15.45,7.91,1.00,11.65,,,
2016-10-11 02:20,10.4,,,2963,1024.46,341.00,13.35,14.50,7.46,1.00,10.79,,,
2016-10-11 02:30,10.4,,,2963,1024.59,347.64,13.28,14.63,7.69,1.00,10.97,,,
2016-10-11 02:40,10.4,,,2963,1024.59,356.34,12.90,14.20,7.68,1.00,10.83,,,
2016-10-11 02:50,10.4,,,2963,1024.77,347.15,12.80,13.99,7.58,1.00,10.80,,,
2016-10-11 03:00,10.3,,,2963,1024.83,345.75,13.29,14.41,7.21,1.00,11.32,,,
2016-10-11 03:10,10.3,,,2963,1024.59,350.91,13.63,15.48,8.01,1.00,11.59,,,
2016-10-11 03:20,10.4,,,2963,1024.77,340.70,14.07,14.87,8.29,1.00,11.67,,,
2016-10-11 03:30,10.3,,,2963,1024.83,341.50,14.28,14.86,8.20,1.00,11.51,,,
2016-10-11 03:40,10.3,,,2963,1024.95,350.70,12.54,13.67,5.73,1.00,10.48,,,
2016-10-11 03:50,10.2,,,2963,1025.08,341.20,12.76,13.84,7.26,1.00,10.52,,,
2016-10-11 04:00,10.1,,,2963,1025.20,339.50,12.95,14.18,7.19,1.00,11.14,,,
2016-10-11 04:10,10.1,,,2963,1025.32,341.90,12.49,13.54,6.86,1.00,10.58,,,
2016-10-11 04:20,10.1,,,2963,1025.32,340.80,12.83,13.49,7.50,1.00,10.91,,,
2016-10-11 04:30,10.0,,,2963,1025.51,341.10,13.56,14.53,7.33,1.00,11.19,,,
2016-10-11 04:40,10.0,,,2963,1025.63,340.20,13.20,14.32,6.81,1.00,10.98,,,
2016-10-11 04:50,10.0,,,2963,1025.63,339.90,12.22,13.49,7.36,1.00,10.51,,,
2016-10-11 05:00,10.0,,,2963,1025.63,346.81,12.36,13.30,5.02,1.00,10.02,,,
2016-10-11 05:10,10.0,,,2963,1025.75,344.89,12.08,13.09,6.25,1.00,9.90,,,
2016-10-11 05:20,9.9,,,2963,1025.93,335.50,11.80,13.16,5.58,1.00,9.57,,,
2016-10-11 05:30,9.8,,,2963,1026.12,341.60,11.38,12.32,5.56,1.00,9.43,,,
2016-10-11 05:40,9.9,,,2963,1026.24,345.24,11.38,12.54,5.49,1.00,9.30,,,
2016-10-11 05:50,9.8,,,2963,1026.30,347.43,11.55,12.33,5.90,1.00,9.67,,,
2016-10-11 06:00,9.8,,,2963,1026.42,345.93,12.11,13.40,5.57,1.00,9.25,,,
2016-10-11 06:10,9.7,,,2963,1026.61,338.90,10.88,11.87,5.65,1.00,9.06,,,
2016-10-11 06:20,9.8,,,2963,1026.67,344.86,11.24,12.97,5.35,1.00,8.61,,,
2016-10-11 06:30,9.8,,,2963,1026.79,336.30,10.99,12.25,5.64,1.00,9.17,,,
2016-10-11 06:40,9.8,,,2963,1026.79,338.70,10.95,12.25,6.06,1.00,9.46,,,
2016-10-11 06:50,9.7,,,2963,1026.73,340.10,12.51,13.07,6.14,1.00,9.51,,,
2016-10-11 07:00,9.7,,,2963,1026.85,337.60,10.07,10.94,5.79,1.00,8.40,,,
2016-10-11 07:10,9.6,,,2963,1026.98,331.50,10.28,11.69,5.33,1.00,8.31,,,
2016-10-11 07:20,9.5,,,2963,1027.10,325.10,11.52,14.32,4.37,1.00,8.64,,,
2016-10-11 07:30,9.4,,,2963,1027.10,331.00,10.18,11.00,4.65,1.00,8.29,,,
2016-10-11 07:40,9.3,,,2963,1027.47,322.30,8.65,9.23,4.93,1.00,7.24,,,
2016-10-11 07:50,9.1,,,2963,1027.47,330.20,8.68,9.42,4.61,1.00,7.02,,,
2016-10-11 08:00,9.1,,,2963,1027.59,326.80,8.23,9.38,4.11,1.00,6.78,,,
2016-10-11 08:10,9.1,,,2963,1027.65,330.60,7.85,8.69,4.14,1.00,6.47,,,
2016-10-11 08:20,9.2,,,2963,1027.65,326.40,7.38,8.32,3.86,1.00,5.99,,,
2016-10-11 08:30,9.2,,,2963,1027.71,319.80,7.38,8.61,3.86,1.00,6.26,,,
2016-10-11 08:40,9.1,,,2963,1027.83,317.00,7.33,8.51,3.61,1.00,6.02,,,
2016-10-11 08:50,9.1,,,2963,1028.08,315.60,6.83,7.53,3.44,1.00,5.55,,,
2016-10-11 09:00,9.0,,,2963,1028.08,320.80,7.13,8.06,3.28,1.00,5.62,,,
2016-10-11 09:10,9.0,,,2963,1028.20,322.80,6.57,8.06,3.26,1.00,5.40,,,
2016-10-11 09:20,9.0,,,2963,1028.33,325.90,6.28,7.46,3.31,1.00,5.22,,,
2016-10-11 09:30,9.1,,,2963,1028.51,324.70,7.15,8.12,3.35,1.00,5.42,,,
2016-10-11 09:40,9.1,,,2963,1028.82,317.50,7.82,8.49,3.26,1.00,5.63,,,
2016-10-11 09:50,9.0,,,2963,1028.94,310.90,6.41,7.35,3.63,1.00,5.63,,,
2016-10-11 10:00,9.0,,,2963,1029.00,313.90,6.50,7.25,3.34,1.00,5.23,,,
2016-10-11 10:10,9.1,,,2963,1029.06,320.60,7.02,7.80,3.24,1.00,5.66,,,
2016-10-11 10:20,9.0,,,2963,1029.06,321.10,7.17,8.14,4.00,1.00,6.08,,,
2016-10-11 10:30,8.9,,,2963,1029.25,323.70,7.39,7.75,3.77,1.00,5.78,,,
2016-10-11 10:40,8.9,,,2963,1029.49,320.80,6.46,7.35,3.06,1.00,5.38,,,
2016-10-11 10:50,8.9,,,2916,1029.61,315.90,6.92,7.26,3.40,1.00,5.51,,,
2016-10-11 11:00,8.9,,,2801,1029.61,321.70,7.12,7.48,3.73,1.00,5.49,,,
2016-10-11 11:10,9.1,,,2888,1029.61,330.30,6.74,7.25,2.65,1.00,5.23,,,
2016-10-11 11:20,9.2,,,2798,1029.80,328.30,6.55,7.98,2.93,1.00,5.05,,,
2016-10-11 11:30,9.2,,,2784,1029.86,333.30,6.22,7.12,3.15,1.00,5.28,,,
2016-10-11 11:40,9.3,,,2938,1029.80,329.70,6.84,7.20,3.49,1.00,5.52,,,
2016-10-11 11:50,9.3,,,2848,1029.86,330.10,6.62,7.63,2.88,1.00,5.39,,,
2016-10-11 12:00,9.3,,,2782,1029.98,327.00,6.57,7.11,3.01,1.00,5.33,,,
2016-10-11 12:10,9.4,,,2829,1030.23,322.70,6.20,6.99,2.62,1.00,4.81,,,
2016-10-11 12:20,9.4,,,2931,1030.35,327.30,5.78,6.91,2.42,1.00,4.55,,,
2016-10-11 12:30,9.6,,,2577,1030.29,329.60,6.06,7.14,2.50,1.00,4.88,,,
2016-10-11 12:40,9.9,,,2473,1030.29,338.50,6.95,7.77,2.04,1.00,5.08,,,
2016-10-11 12:50,10.1,,,2962,1030.35,334.90,7.13,7.90,3.02,1.00,5.51,,,
2016-10-11 13:00,10.1,,,2657,1030.53,339.80,7.27,8.33,3.41,1.00,6.01,,,
2016-10-11 13:10,10.2,,,2962,1030.53,342.76,7.67,8.46,3.35,1.00,6.33,,,
2016-10-11 13:20,10.3,,,2693,1030.72,338.50,7.76,8.38,3.79,1.00,6.52,,,
2016-10-11 13:30,10.2,,,2110,1030.84,336.40,7.28,8.36,4.11,1.00,6.09,,,
2016-10-11 13:40,10.0,,,2440,1030.84,318.20,6.24,7.23,3.19,1.00,5.10,,,
2016-10-11 13:50,9.9,,,2713,1030.90,320.10,6.64,7.22,3.00,1.00,5.08,,,
2016-10-11 14:00,10.0,,,2921,1031.03,328.00,5.69,6.62,2.52,1.00,4.30,,,
2016-10-11 14:10,10.1,,,2962,1031.15,325.20,5.71,6.48,2.60,1.00,4.49,,,
2016-10-11 14:20,10.2,,,2962,1031.09,335.30,5.11,5.65,2.18,1.00,4.03,,,
2016-10-11 14:30,10.4,,,2944,1031.03,348.04,5.07,5.90,2.23,1.00,4.27,,,
2016-10-11 14:40,10.5,,,2962,1031.03,335.70,5.14,5.94,2.71,1.00,4.20,,,
2016-10-11 14:50,10.5,,,2892,1031.15,345.45,4.71,5.67,2.14,1.00,3.92,,,
2016-10-11 15:00,10.8,,,2962,1031.09,352.61,5.19,5.90,2.34,1.00,4.16,,,
2016-10-11 15:10,10.5,,,2962,1030.96,341.60,5.16,5.80,2.09,1.00,4.24,,,
2016-10-11 15:20,10.5,,,2954,1030.96,347.62,4.20,5.01,1.29,1.00,3.37,,,
2016-10-11 15:30,10.5,,,2962,1030.96,355.24,4.65,5.73,1.78,1.00,3.47,,,
2016-10-11 15:40,10.6,,,2962,1030.90,348.10,3.82,4.91,1.27,1.00,3.00,,,
2016-10-11 15:50,10.7,,,2962,1030.90,339.50,4.03,4.87,1.37,1.00,3.18,,,
2016-10-11 16:00,10.8,,,2962,1030.96,339.00,3.23,4.14,0.39,1.00,2.25,,,
2016-10-11 16:10,11.1,,,2962,1030.96,310.80,2.63,3.45,0.64,1.00,1.84,,,
2016-10-11 16:20,11.1,,,2962,1030.96,292.50,2.51,3.09,0.47,1.00,1.91,,,
2016-10-11 16:30,11.1,,,2962,1030.90,272.90,2.56,3.16,0.23,1.00,1.91,,,
2016-10-11 16:40,11.4,,,2962,1030.90,273.90,3.17,3.71,1.46,1.00,2.43,,,
2016-10-11 16:50,11.1,,,2962,1030.78,259.70,3.64,4.18,1.46,1.00,2.68,,,
2016-10-11 17:00,11.1,,,2962,1030.66,254.40,4.02,4.42,1.85,1.00,3.29,,,
2016-10-11 17:10,11.2,,,2962,1030.60,251.70,3.48,4.00,1.08,1.00,2.70,,,
2016-10-11 17:20,11.7,,,2962,1030.53,249.30,3.26,3.76,1.53,1.00,2.61,,,
2016-10-11 17:30,11.8,,,2962,1030.47,219.00,4.76,5.25,2.20,1.00,3.63,,,
2016-10-11 17:40,11.7,,,2962,1030.41,228.20,4.49,4.97,2.00,1.00,3.68,,,
2016-10-11 17:50,11.8,,,2962,1030.29,236.90,4.44,5.07,1.87,1.00,3.58,,,
2016-10-11 18:00,12.0,,,2962,1030.29,232.80,5.12,5.95,2.75,1.00,4.29,,,
2016-10-11 18:10,11.8,,,2962,1030.17,227.30,5.35,6.42,3.11,1.00,4.65,,,
2016-10-11 18:20,11.8,,,2947,1030.10,231.30,5.22,5.69,2.80,1.00,4.26,,,
2016-10-11 18:30,11.8,,,2962,1030.04,228.80,4.62,5.56,2.25,1.00,3.89,,,
2016-10-11 18:40,11.7,,,2962,1029.98,224.50,5.76,6.35,3.44,1.00,5.03,,,
2016-10-11 18:50,11.8,,,2962,1029.92,230.30,5.99,6.82,3.33,1.00,5.22,,,
2016-10-11 19:00,11.9,,,2962,1029.86,232.50,5.97,6.73,3.25,1.00,5.13,,,
2016-10-11 19:10,11.7,,,2962,1029.80,222.60,6.14,6.98,2.93,1.00,5.13,,,
2016-10-11 19:20,11.9,,,2894,1029.80,226.70,6.34,7.37,3.30,1.00,5.43,,,
2016-10-11 19:30,11.8,,,2962,1029.74,226.40,6.79,7.67,3.94,1.00,5.93,,,
2016-10-11 19:40,11.8,,,2962,1029.61,223.90,6.57,7.39,3.23,1.00,5.63,,,
2016-10-11 19:50,11.9,,,2713,1029.55,229.20,6.49,7.73,3.38,1.00,5.58,,,
2016-10-11 20:00,11.9,,,2962,1029.55,228.70,6.70,7.58,3.36,1.00,5.78,,,
2016-10-11 20:10,11.9,,,2934,1029.49,226.70,6.98,7.75,3.60,1.00,5.75,,,
2016-10-11 20:20,12.0,,,2837,1029.55,223.00,6.70,7.34,3.24,1.00,5.49,,,
2016-10-11 20:30,12.1,,,2737,1029.55,228.00,6.95,7.79,3.59,1.00,5.78,,,
2016-10-11 20:40,12.0,,,2783,1029.61,230.00,7.49,8.12,4.11,1.00,6.36,,,
2016-10-11 20:50,12.0,,,2760,1029.61,232.40,7.40,8.20,3.98,1.00,6.44,,,
2016-10-11 21:00,12.0,,,2767,1029.55,238.80,7.45,8.55,4.10,1.00,6.62,,,
2016-10-11 21:10,12.0,,,2881,1029.55,240.20,7.21,8.18,4.32,1.00,6.40,,,
2016-10-11 21:20,12.0,,,2796,1029.61,238.00,7.32,8.40,4.30,1.00,6.28,,,
2016-10-11 21:30,12.0,,,2791,1029.55,236.70,7.83,8.72,4.66,1.00,6.57,,,
2016-10-11 21:40,11.9,,,2871,1029.61,239.20,7.61,8.96,3.70,1.00,6.13,,,
2016-10-11 21:50,11.9,,,2774,1029.61,240.00,7.84,8.47,4.12,1.00,6.47,,,
2016-10-11 22:00,11.9,,,2962,1029.68,239.80,7.68,8.20,4.21,1.00,6.43,,,
2016-10-11 22:10,11.9,,,2962,1029.74,238.50,7.27,7.92,4.21,1.00,6.30,,,
2016-10-11 22:20,11.9,,,2962,1029.74,235.90,7.48,8.27,4.06,1.00,6.46,,,
2016-10-11 22:30,12.0,,,2962,1029.80,240.00,7.58,8.48,4.47,1.00,6.56,,,
2016-10-11 22:40,12.0,,,2962,1029.80,234.80,7.14,8.18,4.39,1.00,6.30,,,
2016-10-11 22:50,12.0,,,2962,1029.74,237.70,7.13,8.09,4.36,1.00,6.27,,,
2016-10-11 23:00,12.1,,,2962,1029.80,236.60,7.04,7.58,3.82,1.00,5.84,,,
2016-10-11 23:10,12.1,,,2962,1029.92,233.80,6.70,7.55,3.23,1.00,5.81,,,
2016-10-11 23:20,12.2,,,2962,1029.92,232.00,6.02,6.91,3.42,1.00,5.10,,,
2016-10-11 23:30,12.1,,,2962,1029.92,234.70,6.70,7.35,3.41,1.00,5.60,,,